User: anonymous   Login
Location: Unspecified
(0.0000°N, 0.0000°E)
Time: 06:46:34
(UTC+00:00)
Language:

SINAH 1 - Orbit

View from above orbital plane
View from above orbital plane
View from above satellite
View from above satellite

Ground track
Ground track

The orbit data is extracted from the following two-line orbital elements,

1 28893U 05043D   19082.89230110 -.00000007  00000-0  76213-5 0  9998
2 28893  97.9584 223.4458 0013893 283.4147  76.5506 14.61498595714626
Epoch (UTC): 23 March 2019 21:24:54
Eccentricity: 0.0013893
inclination: 97.9584°
perigee height: 678 km
apogee height: 698 km
right ascension of ascending node: 223.4458°
argument of perigee: 283.4147°
revolutions per day: 14.61498595
mean anomaly at epoch: 76.5506°
orbit number at epoch: 71462

The dashed part of the orbit path shows where the satellite is in the earth's shadow,  

DLR